ARA225 DRRN-FGSL

Flight info

Callsign ARA225
Flight time 1h 52m
Altitude 37000
Route VOLTI1W VOLTI DCT POT NAPAP1D
Aircraft B737/M-SDE2E3FGHIRWXY/LB1

Departure

Time 2026-05-04 19:06
Airport Diori Hamani International Airport (DRRN)

Arrival

Time 2026-05-04 20:58
Airport Malabo International Airport (FGSL)
Time Latitude Longitude Altitude Speed Heading
2026-05-04 19:02 13.47786 2.17610 724 ft 0 kts 137°
2026-05-04 19:04 13.47787 2.17621 726 ft 4 kts 66°
2026-05-04 19:05 13.47862 2.17650 724 ft 20 kts 357°
2026-05-04 19:05 13.48037 2.17636 724 ft 23 kts 355°
2026-05-04 19:05 13.48174 2.17662 723 ft 25 kts 52°
2026-05-04 19:05 13.48209 2.17901 724 ft 52 kts 87°
2026-05-04 19:06 13.48233 2.18482 726 ft 110 kts 87°
2026-05-04 19:06 13.48276 2.19441 723 ft 156 kts 87°
2026-05-04 19:06 13.48330 2.20622 1055 ft 163 kts 86°
2026-05-04 19:06 13.48416 2.21767 1575 ft 162 kts 85°
2026-05-04 19:07 13.48508 2.22928 2025 ft 163 kts 88°
2026-05-04 19:07 13.48477 2.24104 2418 ft 170 kts 104°
2026-05-04 19:07 13.47908 2.25244 2545 ft 194 kts 139°
2026-05-04 19:07 13.46689 2.25842 2930 ft 200 kts 175°
2026-05-04 19:08 13.45326 2.25638 3457 ft 202 kts 197°
2026-05-04 19:08 13.43841 2.25520 3629 ft 227 kts 176°
2026-05-04 19:08 13.42189 2.25707 3833 ft 250 kts 173°
2026-05-04 19:08 13.40386 2.25958 4071 ft 270 kts 172°
2026-05-04 19:09 13.38494 2.26229 4559 ft 278 kts 172°
2026-05-04 19:09 13.36564 2.26504 5157 ft 281 kts 172°
2026-05-04 19:09 13.34640 2.26776 5782 ft 285 kts 172°
2026-05-04 19:09 13.32662 2.27053 6440 ft 288 kts 172°
2026-05-04 19:10 13.30660 2.27331 7109 ft 292 kts 172°
2026-05-04 19:10 13.28645 2.27610 7832 ft 294 kts 172°
2026-05-04 19:10 13.26602 2.27891 8559 ft 298 kts 172°
2026-05-04 19:10 13.24532 2.28175 9300 ft 302 kts 171°
2026-05-04 19:11 13.22435 2.28463 10038 ft 307 kts 171°
2026-05-04 19:11 13.20251 2.28763 10346 ft 329 kts 171°
2026-05-04 19:11 13.17900 2.29087 10521 ft 352 kts 171°
2026-05-04 19:11 13.15393 2.29432 10684 ft 373 kts 171°
2026-05-04 19:12 13.12797 2.29787 11008 ft 387 kts 171°
2026-05-04 19:12 13.07415 2.30518 12321 ft 392 kts 170°
2026-05-04 19:12 13.04705 2.30886 12994 ft 394 kts 170°
2026-05-04 19:13 13.01975 2.31257 13640 ft 397 kts 170°
2026-05-04 19:13 12.99217 2.31632 14199 ft 401 kts 170°
2026-05-04 19:13 12.96437 2.32010 14713 ft 405 kts 170°
2026-05-04 19:13 12.93631 2.32392 15252 ft 408 kts 170°
2026-05-04 19:14 12.90804 2.32777 15781 ft 412 kts 170°
2026-05-04 19:14 12.87948 2.33166 16291 ft 415 kts 170°
2026-05-04 19:14 12.85070 2.33557 16798 ft 419 kts 170°
2026-05-04 19:14 12.82165 2.33952 17287 ft 422 kts 170°
2026-05-04 19:15 12.79242 2.34350 17755 ft 426 kts 170°
2026-05-04 19:15 12.76333 2.34745 18201 ft 429 kts 170°
2026-05-04 19:15 12.73369 2.35148 18609 ft 431 kts 170°
2026-05-04 19:15 12.70384 2.35553 19038 ft 433 kts 170°
2026-05-04 19:16 12.67399 2.35959 19450 ft 435 kts 171°
2026-05-04 19:16 12.64392 2.36367 19851 ft 437 kts 171°
2026-05-04 19:16 12.61370 2.36777 20225 ft 439 kts 171°
2026-05-04 19:16 12.58330 2.37190 20594 ft 441 kts 171°
2026-05-04 19:17 12.55279 2.37604 20956 ft 443 kts 171°
2026-05-04 19:17 12.52210 2.38021 21307 ft 446 kts 171°
2026-05-04 19:17 12.49126 2.38439 21636 ft 448 kts 171°
2026-05-04 19:17 12.46032 2.38859 21970 ft 450 kts 171°
2026-05-04 19:18 12.42917 2.39281 22303 ft 452 kts 171°
2026-05-04 19:18 12.39791 2.39705 22615 ft 454 kts 171°
2026-05-04 19:18 12.37716 2.39986 22820 ft 455 kts 171°
2026-05-04 19:18 12.33500 2.40557 23206 ft 458 kts 171°
2026-05-04 19:19 12.30332 2.40986 23471 ft 460 kts 171°
2026-05-04 19:19 12.28228 2.41271 23617 ft 461 kts 171°
2026-05-04 19:19 12.25044 2.41703 23854 ft 463 kts 171°
2026-05-04 19:19 12.21848 2.42135 24083 ft 464 kts 171°
2026-05-04 19:20 12.18652 2.42657 24291 ft 465 kts 166°
2026-05-04 19:20 12.15560 2.43638 24525 ft 465 kts 158°
2026-05-04 19:20 12.12650 2.45068 24742 ft 465 kts 148°
2026-05-04 19:20 12.09908 2.46826 24953 ft 466 kts 146°
2026-05-04 19:21 12.07184 2.48634 25147 ft 468 kts 146°
2026-05-04 19:21 12.04452 2.50462 25333 ft 469 kts 146°
2026-05-04 19:21 12.01715 2.52288 25533 ft 471 kts 146°
2026-05-04 19:21 11.98961 2.54111 25723 ft 472 kts 146°
2026-05-04 19:22 11.96195 2.55930 25912 ft 473 kts 147°
2026-05-04 19:22 11.93417 2.57747 26099 ft 475 kts 147°
2026-05-04 19:22 11.90629 2.59565 26268 ft 476 kts 147°
2026-05-04 19:22 11.87868 2.61362 26447 ft 477 kts 147°
2026-05-04 19:23 11.85025 2.63210 26618 ft 478 kts 147°
2026-05-04 19:23 11.82251 2.65013 26777 ft 480 kts 147°
2026-05-04 19:23 11.79436 2.66844 26928 ft 481 kts 147°
2026-05-04 19:23 11.76609 2.68681 27080 ft 482 kts 147°
2026-05-04 19:24 11.73769 2.70527 27239 ft 483 kts 147°
2026-05-04 19:24 11.70932 2.72371 27390 ft 484 kts 147°
2026-05-04 19:24 11.68089 2.74219 27533 ft 485 kts 147°
2026-05-04 19:24 11.65238 2.76071 27661 ft 487 kts 147°
2026-05-04 19:25 11.62378 2.77928 27791 ft 488 kts 147°
2026-05-04 19:25 11.59511 2.79790 27917 ft 489 kts 147°
2026-05-04 19:25 11.56637 2.81656 28036 ft 490 kts 147°
2026-05-04 19:25 11.53758 2.83524 28161 ft 491 kts 147°
2026-05-04 19:26 11.50875 2.85395 28314 ft 491 kts 147°
2026-05-04 19:26 11.47992 2.87265 28520 ft 491 kts 147°
2026-05-04 19:26 11.45120 2.89128 28719 ft 490 kts 147°
2026-05-04 19:26 11.42240 2.90995 28923 ft 489 kts 147°
2026-05-04 19:27 11.39402 2.92835 29108 ft 490 kts 147°
2026-05-04 19:27 11.36530 2.94696 29305 ft 490 kts 147°
2026-05-04 19:27 11.33659 2.96556 29531 ft 489 kts 147°
2026-05-04 19:27 11.30790 2.98414 29756 ft 489 kts 147°
2026-05-04 19:28 11.27921 3.00272 29992 ft 488 kts 147°
2026-05-04 19:28 11.25058 3.02126 30170 ft 488 kts 147°
2026-05-04 19:28 11.22186 3.03985 30331 ft 489 kts 147°
2026-05-04 19:28 11.19311 3.05846 30508 ft 490 kts 147°
2026-05-04 19:29 11.16432 3.07708 30683 ft 490 kts 147°
2026-05-04 19:29 11.13554 3.09570 30896 ft 490 kts 147°
2026-05-04 19:29 11.10671 3.11434 31127 ft 490 kts 147°
2026-05-04 19:29 11.07801 3.13290 31376 ft 489 kts 147°
2026-05-04 19:30 11.04924 3.15150 31620 ft 489 kts 147°
2026-05-04 19:30 11.02053 3.17005 31839 ft 489 kts 147°
2026-05-04 19:30 10.99182 3.18860 32068 ft 489 kts 148°
2026-05-04 19:30 10.96306 3.20718 32313 ft 489 kts 148°
2026-05-04 19:31 10.93435 3.22572 32570 ft 489 kts 148°
2026-05-04 19:31 10.90560 3.24428 32835 ft 489 kts 148°
2026-05-04 19:31 10.87687 3.26282 33091 ft 489 kts 148°
2026-05-04 19:31 10.84808 3.28139 33352 ft 489 kts 148°
2026-05-04 19:32 10.81938 3.29991 33653 ft 488 kts 148°
2026-05-04 19:32 10.79111 3.31815 33949 ft 487 kts 148°
2026-05-04 19:32 10.76249 3.33661 34234 ft 486 kts 148°
2026-05-04 19:32 10.73400 3.35497 34549 ft 484 kts 148°
2026-05-04 19:33 10.70560 3.37328 34853 ft 482 kts 148°
2026-05-04 19:33 10.67732 3.39150 35143 ft 481 kts 148°
2026-05-04 19:33 10.64906 3.40971 35391 ft 480 kts 148°
2026-05-04 19:33 10.62088 3.42787 35669 ft 479 kts 148°
2026-05-04 19:34 10.59276 3.44598 35964 ft 477 kts 148°
2026-05-04 19:34 10.56474 3.46402 36215 ft 476 kts 148°
2026-05-04 19:34 10.53674 3.48204 36433 ft 476 kts 148°
2026-05-04 19:34 10.50878 3.50004 36665 ft 475 kts 148°
2026-05-04 19:35 10.48089 3.51798 36862 ft 475 kts 148°
2026-05-04 19:35 10.42480 3.55405 36851 ft 476 kts 148°
2026-05-04 19:36 10.36898 3.58995 36850 ft 473 kts 148°
2026-05-04 19:36 10.31391 3.62535 36856 ft 470 kts 148°
2026-05-04 19:37 10.25873 3.66079 36860 ft 468 kts 148°
2026-05-04 19:37 10.20368 3.69614 36862 ft 468 kts 148°
2026-05-04 19:38 10.14865 3.73146 36866 ft 469 kts 148°
2026-05-04 19:38 10.09342 3.76690 36865 ft 470 kts 148°
2026-05-04 19:39 10.03805 3.80241 36862 ft 471 kts 148°
2026-05-04 19:39 9.98248 3.83803 36867 ft 473 kts 148°
2026-05-04 19:40 9.92684 3.87369 36864 ft 474 kts 148°
2026-05-04 19:40 9.87098 3.90947 36864 ft 474 kts 148°
2026-05-04 19:41 9.81544 3.94504 36865 ft 475 kts 148°
2026-05-04 19:41 9.75956 3.98080 36867 ft 475 kts 148°
2026-05-04 19:42 9.70363 4.01659 36863 ft 474 kts 148°
2026-05-04 19:42 9.64781 4.05229 36864 ft 474 kts 148°
2026-05-04 19:43 9.59198 4.08798 36867 ft 474 kts 148°
2026-05-04 19:43 9.53652 4.12341 36863 ft 474 kts 148°
2026-05-04 19:44 9.48071 4.15906 36864 ft 474 kts 148°
2026-05-04 19:44 9.42484 4.19474 36868 ft 474 kts 148°
2026-05-04 19:45 9.36909 4.23032 36869 ft 474 kts 148°
2026-05-04 19:45 9.31321 4.26598 36864 ft 474 kts 148°
2026-05-04 19:46 9.25739 4.30157 36864 ft 474 kts 148°
2026-05-04 19:46 9.20150 4.33721 36864 ft 474 kts 149°
2026-05-04 19:47 9.14568 4.37278 36871 ft 474 kts 149°
2026-05-04 19:47 9.08985 4.40835 36875 ft 474 kts 149°
2026-05-04 19:48 9.03401 4.44391 36880 ft 474 kts 148°
2026-05-04 19:48 8.97845 4.47928 36870 ft 474 kts 148°
2026-05-04 19:49 8.92262 4.51481 36877 ft 474 kts 148°
2026-05-04 19:49 8.86668 4.55039 36877 ft 474 kts 148°
2026-05-04 19:50 8.81072 4.58597 36880 ft 475 kts 148°
2026-05-04 19:50 8.75485 4.62149 36881 ft 475 kts 148°
2026-05-04 19:51 8.69892 4.65703 36882 ft 475 kts 148°
2026-05-04 19:51 8.64296 4.69257 36884 ft 475 kts 148°
2026-05-04 19:52 8.58703 4.72809 36887 ft 475 kts 148°
2026-05-04 19:52 8.53151 4.76333 36890 ft 474 kts 148°
2026-05-04 19:53 8.47559 4.79881 36893 ft 474 kts 148°
2026-05-04 19:53 8.41969 4.83427 36893 ft 474 kts 148°
2026-05-04 19:54 8.36379 4.86972 36898 ft 474 kts 148°
2026-05-04 19:54 8.30790 4.90515 36904 ft 474 kts 148°
2026-05-04 19:55 8.25198 4.94058 36908 ft 474 kts 148°
2026-05-04 19:55 8.19608 4.97599 36911 ft 474 kts 148°
2026-05-04 19:56 8.14013 5.01142 36913 ft 475 kts 148°
2026-05-04 19:56 8.08454 5.04661 36911 ft 475 kts 148°
2026-05-04 19:57 8.02854 5.08205 36915 ft 475 kts 148°
2026-05-04 19:57 7.97246 5.11752 36920 ft 475 kts 148°
2026-05-04 19:58 7.91638 5.15299 36924 ft 476 kts 148°
2026-05-04 19:58 7.86030 5.18844 36922 ft 476 kts 148°
2026-05-04 19:59 7.80418 5.22391 36925 ft 476 kts 148°
2026-05-04 19:59 7.74807 5.25936 36926 ft 476 kts 148°
2026-05-04 20:00 7.69197 5.29479 36922 ft 476 kts 148°
2026-05-04 20:00 7.63584 5.33023 36922 ft 476 kts 148°
2026-05-04 20:01 7.57974 5.36564 36924 ft 476 kts 148°
2026-05-04 20:01 7.52395 5.40084 36922 ft 476 kts 148°
2026-05-04 20:02 7.46779 5.43626 36915 ft 476 kts 148°
2026-05-04 20:02 7.41155 5.47173 36916 ft 476 kts 148°
2026-05-04 20:03 7.35539 5.50713 36913 ft 476 kts 148°
2026-05-04 20:03 7.29916 5.54257 36913 ft 476 kts 148°
2026-05-04 20:04 7.24294 5.57799 36906 ft 476 kts 148°
2026-05-04 20:04 7.18680 5.61335 36900 ft 476 kts 148°
2026-05-04 20:05 7.13106 5.64844 36900 ft 475 kts 148°
2026-05-04 20:05 7.07496 5.68376 36897 ft 475 kts 148°
2026-05-04 20:06 7.01889 5.71904 36895 ft 475 kts 148°
2026-05-04 20:06 6.97233 5.74834 36893 ft 475 kts 148°
2026-05-04 20:07 6.91624 5.78361 36887 ft 475 kts 148°
2026-05-04 20:07 6.86023 5.81883 36889 ft 475 kts 148°
2026-05-04 20:08 6.80416 5.85407 36885 ft 475 kts 148°
2026-05-04 20:08 6.74808 5.88932 36886 ft 475 kts 148°
2026-05-04 20:09 6.69202 5.92454 36889 ft 476 kts 148°
2026-05-04 20:09 6.63586 5.95981 36890 ft 476 kts 148°
2026-05-04 20:10 6.57974 5.99505 36892 ft 476 kts 148°
2026-05-04 20:10 6.52359 6.03030 36892 ft 475 kts 148°
2026-05-04 20:11 6.46781 6.06531 36892 ft 475 kts 148°
2026-05-04 20:11 6.41171 6.10050 36893 ft 475 kts 148°
2026-05-04 20:12 6.35568 6.13564 36895 ft 474 kts 148°
2026-05-04 20:12 6.29973 6.17073 36888 ft 474 kts 148°
2026-05-04 20:13 6.24382 6.20578 36894 ft 473 kts 148°
2026-05-04 20:13 6.18793 6.24081 36890 ft 473 kts 148°
2026-05-04 20:14 6.13203 6.27584 36890 ft 473 kts 148°
2026-05-04 20:14 6.07617 6.31083 36887 ft 473 kts 147°
2026-05-04 20:15 6.02075 6.34554 36889 ft 472 kts 147°
2026-05-04 20:15 5.96496 6.38047 36885 ft 472 kts 147°
2026-05-04 20:16 5.90911 6.41544 36886 ft 472 kts 147°
2026-05-04 20:16 5.85332 6.45035 36885 ft 472 kts 147°
2026-05-04 20:17 5.79761 6.48520 36883 ft 472 kts 147°
2026-05-04 20:17 5.74182 6.52010 36885 ft 472 kts 147°
2026-05-04 20:18 5.68610 6.55496 36886 ft 472 kts 147°
2026-05-04 20:18 5.63038 6.58979 36885 ft 471 kts 147°
2026-05-04 20:19 5.57472 6.62459 36889 ft 471 kts 147°
2026-05-04 20:19 5.51903 6.65939 36884 ft 471 kts 147°
2026-05-04 20:20 5.46446 6.69347 36888 ft 471 kts 147°
2026-05-04 20:20 5.40890 6.72819 36889 ft 470 kts 147°
2026-05-04 20:21 5.35445 6.76221 36892 ft 470 kts 147°
2026-05-04 20:21 5.27109 6.81427 36891 ft 470 kts 147°
2026-05-04 20:22 5.21553 6.84894 36893 ft 470 kts 147°
2026-05-04 20:22 5.15992 6.88365 36891 ft 470 kts 147°
2026-05-04 20:23 5.10543 6.91767 36892 ft 470 kts 147°
2026-05-04 20:23 5.04990 6.95244 36896 ft 470 kts 144°
2026-05-04 20:24 5.02544 6.97389 36886 ft 467 kts 128°
2026-05-04 20:24 5.00612 6.99959 36905 ft 466 kts 124°
2026-05-04 20:24 4.96877 7.05276 36894 ft 467 kts 124°
2026-05-04 20:25 4.93140 7.10607 36898 ft 467 kts 124°
2026-05-04 20:25 4.89364 7.15904 36897 ft 467 kts 125°
2026-05-04 20:26 4.85566 7.21188 36899 ft 467 kts 125°
2026-05-04 20:26 4.81764 7.26469 36901 ft 466 kts 125°
2026-05-04 20:27 4.77965 7.31747 36902 ft 466 kts 125°
2026-05-04 20:27 4.74166 7.37026 36899 ft 466 kts 125°
2026-05-04 20:28 4.70396 7.42264 36902 ft 466 kts 125°
2026-05-04 20:28 4.66605 7.47530 36902 ft 466 kts 125°
2026-05-04 20:29 4.62816 7.52793 36905 ft 466 kts 125°
2026-05-04 20:29 4.59011 7.58076 36372 ft 473 kts 125°
2026-05-04 20:30 4.57089 7.60745 35758 ft 471 kts 125°
2026-05-04 20:30 4.55170 7.63409 34959 ft 472 kts 125°
2026-05-04 20:30 4.53243 7.66083 34131 ft 474 kts 125°
2026-05-04 20:30 4.51309 7.68768 33180 ft 476 kts 125°
2026-05-04 20:31 4.49365 7.71465 32264 ft 478 kts 125°
2026-05-04 20:31 4.47419 7.74165 31319 ft 479 kts 125°
2026-05-04 20:31 4.45464 7.76878 30344 ft 482 kts 125°
2026-05-04 20:31 4.43498 7.79605 29175 ft 485 kts 125°
2026-05-04 20:32 4.41520 7.82350 27993 ft 486 kts 125°
2026-05-04 20:32 4.39539 7.85098 26802 ft 487 kts 125°
2026-05-04 20:32 4.37549 7.87858 25674 ft 488 kts 125°
2026-05-04 20:32 4.35573 7.90598 24766 ft 483 kts 125°
2026-05-04 20:33 4.33617 7.93309 23876 ft 478 kts 125°
2026-05-04 20:33 4.31676 7.96000 22910 ft 474 kts 125°
2026-05-04 20:33 4.29761 7.98654 21994 ft 467 kts 125°
2026-05-04 20:33 4.27884 8.01255 21088 ft 459 kts 125°
2026-05-04 20:34 4.26025 8.03831 20374 ft 449 kts 124°
2026-05-04 20:34 4.24228 8.06321 19434 ft 445 kts 124°
2026-05-04 20:34 4.22439 8.08799 18708 ft 435 kts 124°
2026-05-04 20:34 4.20671 8.11249 17926 ft 429 kts 124°
2026-05-04 20:35 4.18939 8.13649 16935 ft 424 kts 124°
2026-05-04 20:35 4.17229 8.16019 16154 ft 415 kts 124°
2026-05-04 20:35 4.15539 8.18360 15284 ft 411 kts 124°
2026-05-04 20:35 4.13878 8.20663 14390 ft 407 kts 124°
2026-05-04 20:36 4.12236 8.22936 13671 ft 399 kts 124°
2026-05-04 20:36 4.10609 8.25190 12819 ft 394 kts 124°
2026-05-04 20:36 4.09012 8.27402 11886 ft 391 kts 123°
2026-05-04 20:36 4.07432 8.29591 11088 ft 385 kts 123°
2026-05-04 20:37 4.05875 8.31748 10535 ft 376 kts 123°
2026-05-04 20:37 4.04383 8.33811 10368 ft 355 kts 123°
2026-05-04 20:37 4.02968 8.35765 10230 ft 337 kts 122°
2026-05-04 20:37 4.01733 8.37674 10100 ft 317 kts 111°
2026-05-04 20:38 4.01126 8.39691 9911 ft 301 kts 96°
2026-05-04 20:38 4.00883 8.41733 9678 ft 290 kts 94°
2026-05-04 20:38 4.00707 8.43715 9419 ft 282 kts 93°
2026-05-04 20:38 4.00544 8.45644 9159 ft 274 kts 93°
2026-05-04 20:39 4.00383 8.47522 8908 ft 267 kts 93°
2026-05-04 20:39 4.00219 8.49354 8656 ft 261 kts 94°
2026-05-04 20:39 4.00055 8.51152 8406 ft 257 kts 94°
2026-05-04 20:39 3.99890 8.52926 8170 ft 256 kts 94°
2026-05-04 20:40 3.99723 8.54701 7933 ft 256 kts 94°
2026-05-04 20:40 3.99555 8.56474 7674 ft 255 kts 94°
2026-05-04 20:40 3.99389 8.58222 7418 ft 251 kts 94°
2026-05-04 20:40 3.99222 8.59966 7100 ft 251 kts 94°
2026-05-04 20:41 3.99055 8.61705 6778 ft 251 kts 94°
2026-05-04 20:41 3.98888 8.63446 6434 ft 252 kts 95°
2026-05-04 20:41 3.98719 8.65204 6072 ft 254 kts 95°
2026-05-04 20:41 3.98549 8.66964 5725 ft 254 kts 95°
2026-05-04 20:42 3.98379 8.68723 5388 ft 254 kts 95°
2026-05-04 20:42 3.98210 8.70485 5057 ft 254 kts 95°
2026-05-04 20:42 3.98040 8.72248 4720 ft 255 kts 95°
2026-05-04 20:42 3.97869 8.74014 4391 ft 255 kts 95°
2026-05-04 20:43 3.97698 8.75782 4062 ft 255 kts 95°
2026-05-04 20:43 3.97398 8.77495 3829 ft 250 kts 112°
2026-05-04 20:43 3.96400 8.78856 3740 ft 239 kts 142°
2026-05-04 20:43 3.94982 8.79592 3732 ft 224 kts 165°
2026-05-04 20:44 3.93494 8.79895 3693 ft 216 kts 171°
2026-05-04 20:44 3.91995 8.80128 3495 ft 221 kts 172°
2026-05-04 20:44 3.90475 8.80367 3272 ft 221 kts 172°
2026-05-04 20:44 3.88955 8.80611 3016 ft 220 kts 171°
2026-05-04 20:45 3.87441 8.80842 2757 ft 219 kts 178°
2026-05-04 20:45 3.86009 8.80455 2475 ft 215 kts 219°
2026-05-04 20:45 3.84929 8.79440 2261 ft 212 kts 224°
2026-05-04 20:45 3.83858 8.78439 2165 ft 209 kts 223°
2026-05-04 20:46 3.82771 8.77428 2134 ft 217 kts 223°
2026-05-04 20:46 3.81678 8.76417 2130 ft 216 kts 223°
2026-05-04 20:46 3.80577 8.75413 2117 ft 212 kts 222°
2026-05-04 20:46 3.79492 8.74432 2107 ft 207 kts 222°
2026-05-04 20:47 3.78430 8.73475 2113 ft 204 kts 222°
2026-05-04 20:47 3.77371 8.72523 2122 ft 205 kts 222°
2026-05-04 20:47 3.76308 8.71566 2141 ft 205 kts 222°
2026-05-04 20:47 3.75239 8.70609 2127 ft 208 kts 222°
2026-05-04 20:48 3.74178 8.69571 2143 ft 229 kts 236°
2026-05-04 20:48 3.73716 8.67952 2138 ft 256 kts 273°
2026-05-04 20:48 3.74270 8.66259 2139 ft 260 kts 299°
2026-05-04 20:48 3.75196 8.64700 2122 ft 260 kts 300°
2026-05-04 20:49 3.76137 8.63157 2127 ft 258 kts 300°
2026-05-04 20:49 3.77080 8.61634 2103 ft 256 kts 303°
2026-05-04 20:49 3.78435 8.60558 2118 ft 251 kts 341°
2026-05-04 20:49 3.80173 8.60523 2133 ft 260 kts 18°
2026-05-04 20:50 3.81778 8.61403 2127 ft 267 kts 38°
2026-05-04 20:50 3.83097 8.62688 2135 ft 269 kts 48°
2026-05-04 20:50 3.84320 8.64113 2140 ft 270 kts 50°
2026-05-04 20:50 3.85531 8.65557 2124 ft 270 kts 50°
2026-05-04 20:51 3.86741 8.66988 2112 ft 268 kts 49°
2026-05-04 20:51 3.87949 8.68398 2114 ft 265 kts 49°
2026-05-04 20:51 3.89151 8.69786 2113 ft 263 kts 49°
2026-05-04 20:51 3.90354 8.71166 2117 ft 262 kts 49°
2026-05-04 20:52 3.91549 8.72534 2121 ft 261 kts 49°
2026-05-04 20:52 3.92744 8.73901 2113 ft 260 kts 48°
2026-05-04 20:52 3.93500 8.74835 2115 ft 261 kts 58°
2026-05-04 20:52 3.94047 8.76553 2128 ft 262 kts 88°
2026-05-04 20:53 3.93682 8.78329 2137 ft 264 kts 118°
2026-05-04 20:53 3.92492 8.79693 2123 ft 262 kts 148°
2026-05-04 20:53 3.90810 8.80348 2135 ft 260 kts 169°
2026-05-04 20:53 3.89030 8.80660 2125 ft 260 kts 172°
2026-05-04 20:54 3.87236 8.80897 2111 ft 260 kts 180°
2026-05-04 20:54 3.86426 8.80808 2098 ft 259 kts 197°
2026-05-04 20:55 3.85789 8.80547 2118 ft 257 kts 211°
2026-05-04 20:55 3.84480 8.79371 2125 ft 244 kts 227°
2026-05-04 20:55 3.83384 8.78246 1898 ft 219 kts 224°
2026-05-04 20:56 3.82397 8.77257 1605 ft 201 kts 225°
2026-05-04 20:56 3.81442 8.76304 1348 ft 187 kts 224°
2026-05-04 20:56 3.80537 8.75439 1110 ft 172 kts 223°
2026-05-04 20:56 3.79705 8.74666 960 ft 153 kts 222°
2026-05-04 20:57 3.78936 8.73951 646 ft 149 kts 225°
2026-05-04 20:57 3.78263 8.73280 576 ft 126 kts 223°
2026-05-04 20:57 3.77602 8.72706 383 ft 131 kts 222°
2026-05-04 20:57 3.76922 8.72093 202 ft 131 kts 222°
2026-05-04 20:58 3.76210 8.71476 64 ft 133 kts 222°
2026-05-04 20:58 3.75646 8.70969 66 ft 79 kts 222°
2026-05-04 20:58 3.75278 8.70642 71 ft 64 kts 221°
2026-05-04 20:58 3.74995 8.70408 71 ft 29 kts 195°
2026-05-04 20:59 3.74879 8.70523 69 ft 21 kts 69°
2026-05-04 20:59 3.74979 8.70618 65 ft 20 kts 41°
2026-05-04 20:59 3.75079 8.70707 65 ft 19 kts 42°
2026-05-04 20:59 3.75175 8.70793 69 ft 18 kts 41°
2026-05-04 21:00 3.75226 8.70892 69 ft 17 kts 117°
2026-05-04 21:00 3.75166 8.70974 65 ft 4 kts 133°
2026-05-04 21:00 3.75163 8.70978 66 ft 0 kts 133°